Weather History for Morrisville, VT

Change the Weather History Date:

Tuesday, March 12, 2013

  Actual Average Record
Temperature  
Mean Temperature 43 °F 27 °F  
Max Temperature 49 °F 38 °F 61 °F (2012)
Min Temperature 36 °F 16 °F 1 °F (1998)
Degree Days  
Heating Degree Days 22 38  
Month to date heating degree days 388 480  
Since 1 July heating degree days 5920 6440  
Cooling Degree Days 0 0  
Month to date cooling degree days 0 0  
Year to date cooling degree days 0 0  
Moisture  
Dew Point 40 °F    
Average Humidity 84    
Maximum Humidity 100    
Minimum Humidity 67    
Precipitation  
Precipitation 0.77 in 0.05 in 0.77 in (2013)
Month to date precipitation 0.81 0.52  
Year to date precipitation 3.52 4.80  
Sea Level Pressure  
Sea Level Pressure 29.82 in    
Wind  
Wind Speed 6 mph (SSW)    
Max Wind Speed 13 mph    
Max Gust Speed 31 mph    
Visibility 6 miles    
Events Fog , Rain    
T = Trace of Precipitation, MM = Missing Value Source: NWS Daily Summary

Daily Weather History Graph

Daily Weather History Graph

Search for Another Location

Airport:

Trip Planner

Search our weather history database for the weather conditions in past years. The results will help you decide how hot, cold, wet, or windy it might be!

Date:

Astronomy

Mar. 12, 2013 Rise Set
Actual Time 7:07 AM EDT 6:53 PM EDT
Civil Twilight 6:38 AM EDT 7:22 PM EDT
Nautical Twilight 6:05 AM EDT 7:55 PM EDT
Astronomical Twilight 5:30 AM EDT 8:30 PM EDT
Moon 7:09 AM EDT (3/12) 8:10 PM EDT (3/12)
Length of Visible Light 12h 43m
Length of Day
11h 45m
New Moon, 1% of the Moon is Illuminated
Mar 12
New Moon
Mar 19
First Quarter
Mar 27
Full
Apr 3
Last Quarter
Apr 10
New

Hourly Weather History & Observations

Time (EDT) Temp. Windchill Dew Point Humidity Pressure Visibility Wind Dir Wind Speed Gust Speed Precip Events Conditions
12:54 AM 43.0 °F 41.3 °F 32.0 °F 65% 29.99 in 10.0 mi South 3.5 mph - N/A   Clear
1:54 AM 41.0 °F - 32.0 °F 70% 29.99 in 10.0 mi Calm Calm - N/A   Clear
2:54 AM 42.1 °F 39.2 °F 33.1 °F 70% 29.97 in 10.0 mi South 4.6 mph - N/A   Clear
3:54 AM 42.1 °F 39.2 °F 34.0 °F 73% 29.96 in 10.0 mi South 4.6 mph - N/A   Overcast
4:54 AM 42.1 °F 39.2 °F 36.0 °F 79% 29.95 in 10.0 mi Variable 4.6 mph - 0.00 in Rain Light Rain
5:54 AM 41.0 °F 39.0 °F 37.9 °F 89% 29.94 in 6.0 mi SE 3.5 mph - 0.04 in Rain Light Rain
6:54 AM 43.0 °F 38.8 °F 39.9 °F 89% 29.92 in 10.0 mi SSW 6.9 mph - 0.03 in Rain Light Rain
7:14 AM 42.8 °F 36.2 °F 39.2 °F 87% 29.90 in 9.0 mi South 12.7 mph 16.1 mph 0.00 in Rain Light Rain
7:54 AM 44.1 °F 40.8 °F 39.9 °F 85% 29.91 in 10.0 mi SSW 5.8 mph - 0.01 in Rain Light Rain
8:02 AM 44.6 °F 38.4 °F 41.0 °F 87% 29.89 in 9.0 mi South 12.7 mph 18.4 mph 0.00 in Rain Light Rain
8:54 AM 46.9 °F - 41.0 °F 80% 29.90 in 10.0 mi South 10.4 mph 24.2 mph 0.01 in Rain Light Rain
9:08 AM 46.4 °F 41.5 °F 41.0 °F 81% 29.88 in 10.0 mi South 10.4 mph 26.5 mph 0.00 in Rain Light Rain
9:54 AM 46.0 °F 43.9 °F 42.1 °F 86% 29.90 in 6.0 mi WSW 4.6 mph - 0.01 in Rain Light Rain
10:54 AM 46.9 °F - 43.0 °F 86% 29.88 in 10.0 mi South 10.4 mph 24.2 mph 0.03 in Rain Light Rain
11:29 AM 48.2 °F - 42.8 °F 82% 29.86 in 9.0 mi South 8.1 mph 21.9 mph 0.01 in Rain Light Rain
11:54 AM 48.0 °F - 43.0 °F 83% 29.87 in 10.0 mi South 8.1 mph 24.2 mph 0.01 in Rain Light Rain
12:01 PM 48.2 °F - 42.8 °F 82% 29.85 in 10.0 mi SSW 6.9 mph - 0.00 in Rain Light Rain
12:54 PM 48.0 °F - 43.0 °F 83% 29.85 in 10.0 mi South 5.8 mph - 0.02 in Rain Light Rain
1:54 PM 48.9 °F - 44.1 °F 83% 29.83 in 7.0 mi South 9.2 mph 19.6 mph 0.03 in Rain Light Rain
2:54 PM 48.9 °F - 45.0 °F 86% 29.80 in 5.0 mi South 6.9 mph - 0.04 in Rain Light Rain
3:54 PM 46.9 °F - 45.0 °F 93% 29.79 in 9.0 mi SSE 3.5 mph - 0.05 in Rain Light Rain
4:54 PM 46.9 °F - 44.1 °F 90% 29.77 in 6.0 mi Calm Calm - 0.06 in Rain Light Rain
5:29 PM 44.6 °F - 42.8 °F 93% 29.73 in 2.0 mi Calm Calm - 0.06 in Rain Rain
5:35 PM 44.6 °F 43.1 °F 42.8 °F 93% 29.73 in 1.0 mi NW 3.5 mph - 0.07 in Rain Rain
5:42 PM 44.6 °F - 42.8 °F 93% 29.73 in 0.5 mi Calm Calm - 0.08 in Fog , Rain Light Rain
5:54 PM 45.0 °F - 43.0 °F 93% 29.74 in 0.2 mi Calm Calm - 0.10 in Fog , Rain Light Rain
6:01 PM 44.6 °F - 42.8 °F 93% 29.72 in 0.5 mi Calm Calm - 0.01 in Fog , Rain Light Rain
6:17 PM 44.6 °F 43.1 °F 42.8 °F 93% 29.71 in 0.2 mi NNW 3.5 mph - 0.04 in Fog , Rain Rain
6:50 PM 44.6 °F - 42.8 °F 93% 29.70 in 1.2 mi Calm Calm - 0.09 in Rain Light Rain
6:51 PM 45.0 °F - 44.1 °F 97% 29.72 in 1.5 mi Calm Calm - 0.09 in Rain Light Rain
7:02 PM 44.6 °F - 42.8 °F 93% 29.70 in 0.8 mi Calm Calm - 0.02 in Rain Rain
7:19 PM 42.8 °F 41.1 °F 42.8 °F 100% 29.70 in 1.0 mi North 3.5 mph - 0.04 in Rain Light Rain
7:26 PM 44.6 °F 42.2 °F 42.8 °F 93% 29.71 in 1.2 mi NNW 4.6 mph - 0.05 in Rain Light Rain
7:37 PM 44.6 °F 41.4 °F 42.8 °F 93% 29.72 in 2.5 mi North 5.8 mph - 0.09 in Rain Rain
7:39 PM 44.6 °F 40.7 °F 42.8 °F 93% 29.72 in 3.0 mi North 6.9 mph - 0.10 in Rain Rain
7:54 PM 41.0 °F 33.9 °F 37.9 °F 89% 29.75 in 4.0 mi North 12.7 mph - 0.13 in Rain Rain
8:21 PM 37.4 °F 29.8 °F 35.6 °F 93% 29.75 in 5.0 mi North 11.5 mph 21.9 mph 0.04 in Rain Light Rain
8:54 PM 37.9 °F 30.5 °F 35.1 °F 89% 29.78 in 5.0 mi North 11.5 mph - 0.08 in Rain Light Rain
9:54 PM 37.0 °F 30.4 °F 35.1 °F 93% 29.79 in 10.0 mi North 9.2 mph - 0.02 in Rain Light Rain
10:28 PM 37.4 °F - 35.6 °F 93% 29.79 in 8.0 mi Calm Calm - 0.01 in Rain Light Rain
10:54 PM 37.0 °F - 36.0 °F 96% 29.81 in 10.0 mi Calm Calm - 0.01 in   Overcast
11:03 PM 37.4 °F - 35.6 °F 93% 29.80 in 9.0 mi Calm Calm - 0.00 in Rain Light Rain
11:18 PM 35.6 °F - 33.8 °F 93% 29.80 in 10.0 mi Calm Calm - 0.00 in Rain Light Rain
11:30 PM 35.6 °F - 33.8 °F 93% 29.80 in 10.0 mi Calm Calm - 0.00 in Rain Light Rain
11:54 PM 36.0 °F - 34.0 °F 93% 29.83 in 10.0 mi Calm Calm - 0.00 in   Overcast